Weather History for Fullerton, CA

Change the Weather History Date:

Friday, November 18, 2011

  Actual Average Record
Temperature  
Mean Temperature 60 °F 60 °F  
Max Temperature 63 °F 72 °F 88 °F (2008)
Min Temperature 57 °F 49 °F 39 °F (2000)
Degree Days  
Heating Degree Days 5 5  
Month to date heating degree days 68 62  
Since 1 July heating degree days 77 86  
Cooling Degree Days 0 0  
Month to date cooling degree days 6 19  
Year to date cooling degree days 1171 1250  
Growing Degree Days 8 (Base 50)    
Moisture  
Dew Point 51 °F    
Average Humidity 76    
Maximum Humidity 86    
Minimum Humidity 65    
Precipitation  
Precipitation 0.00 in 0.03 in 0.01 in (2001)
Month to date precipitation 0.59 0.69  
Year to date precipitation 6.92 11.42  
Since 1 July precipitation 1.35 1.77  
Snow  
Snow 0.00 in - - ()
Month to date snowfall 0.0  
Year to date snowfall 0.0  
Since 1 July snowfall 0.0  
Snow Depth 0.00 in    
Sea Level Pressure  
Sea Level Pressure 29.95 in    
Wind  
Wind Speed 2 mph (SSE)    
Max Wind Speed 7 mph    
Max Gust Speed 15 mph    
Visibility 7 miles    
Events      
T = Trace of Precipitation, MM = Missing Value Source: NWS Daily Summary

Daily Weather History Graph

Daily Weather History Graph

Search for Another Location

Airport:

Trip Planner

Search our weather history database for the weather conditions in past years. The results will help you decide how hot, cold, wet, or windy it might be!

Date:

Astronomy

Nov. 18, 2011 Rise Set
Actual Time 6:26 AM PST 4:47 PM PST
Civil Twilight 6:00 AM PST 5:13 PM PST
Nautical Twilight 5:29 AM PST 5:43 PM PST
Astronomical Twilight 5:00 AM PST 6:13 PM PST
Moon No Moon Rise 12:17 PM PST (11/18)
Length of Visible Light 11h 13m
Length of Day
10h 20m
Waning Gibbous, 48% of the Moon is Illuminated
Nov 18
Waning Gibbous
Nov 24
New
Dec 2
First Quarter
Dec 10
Full
Dec 17
Last Quarter

Hourly Weather History & Observations

Time (PST) Temp. Dew Point Humidity Pressure Visibility Wind Dir Wind Speed Gust Speed Precip Events Conditions
12:07 AM 57.2 °F 53.6 °F 88% 30.00 in 2.5 mi South 4.6 mph - N/A   Overcast
12:53 AM 57.0 °F 53.1 °F 87% 29.99 in 3.0 mi South 4.6 mph - N/A   Overcast
1:11 AM 57.2 °F 53.6 °F 88% 29.99 in 4.0 mi East 3.5 mph - N/A   Haze
1:23 AM 57.2 °F 53.6 °F 88% 29.99 in 4.0 mi NE 3.5 mph - N/A   Haze
1:53 AM 57.9 °F 53.1 °F 84% 29.98 in 5.0 mi East 3.5 mph - N/A   Haze
2:23 AM 57.2 °F 51.8 °F 82% 29.98 in 4.0 mi ESE 3.5 mph - N/A   Haze
2:53 AM 57.9 °F 52.0 °F 81% 29.97 in 5.0 mi Calm Calm - N/A   Haze
3:53 AM 57.9 °F 52.0 °F 81% 29.96 in 5.0 mi Calm Calm - N/A   Haze
4:53 AM 57.9 °F 52.0 °F 81% 29.96 in 5.0 mi ENE 3.5 mph - N/A   Haze
5:53 AM 57.9 °F 51.1 °F 78% 29.96 in 6.0 mi Calm Calm - N/A   Haze
6:53 AM 57.9 °F 51.1 °F 78% 29.96 in 6.0 mi Calm Calm - N/A   Haze
7:25 AM 59.0 °F 50.0 °F 72% 29.97 in 8.0 mi Calm Calm - N/A   Overcast
7:53 AM 59.0 °F 50.0 °F 72% 29.98 in 8.0 mi Calm Calm - N/A   Overcast
8:53 AM 59.0 °F 50.0 °F 72% 29.98 in 8.0 mi Calm Calm - N/A   Overcast
9:53 AM 60.1 °F 51.1 °F 72% 29.99 in 8.0 mi Variable 3.5 mph - N/A   Overcast
10:53 AM 61.0 °F 51.1 °F 70% 29.98 in 5.0 mi East 4.6 mph - N/A   Haze
11:53 AM 61.0 °F 50.0 °F 67% 29.96 in 8.0 mi Calm Calm - N/A   Overcast
12:53 PM 61.0 °F 50.0 °F 67% 29.94 in 8.0 mi SSE 3.5 mph - N/A   Overcast
1:13 PM 60.8 °F 50.0 °F 68% 29.94 in 7.0 mi South 3.5 mph - N/A   Overcast
1:46 PM 62.6 °F 51.8 °F 68% 29.94 in 7.0 mi SE 5.8 mph - N/A   Overcast
1:53 PM 62.1 °F 50.0 °F 65% 29.94 in 7.0 mi SSE 4.6 mph - N/A   Overcast
2:53 PM 62.1 °F 51.1 °F 67% 29.93 in 7.0 mi SSW 3.5 mph - N/A   Overcast
3:53 PM 62.1 °F 50.0 °F 65% 29.91 in 7.0 mi Variable 5.8 mph - N/A   Overcast
4:53 PM 62.1 °F 51.1 °F 67% 29.91 in 7.0 mi South 3.5 mph - N/A   Overcast
5:24 PM 60.8 °F 51.8 °F 72% 29.91 in 10.0 mi South 4.6 mph - N/A   Overcast
5:36 PM 60.8 °F 51.8 °F 72% 29.91 in 10.0 mi SSW 5.8 mph - N/A   Overcast
5:53 PM 61.0 °F 52.0 °F 72% 29.91 in 10.0 mi SSW 5.8 mph - N/A   Overcast
6:00 PM 60.8 °F 51.8 °F 72% 29.91 in 10.0 mi SSW 5.8 mph - N/A   Overcast
6:53 PM 60.1 °F 52.0 °F 75% 29.92 in 10.0 mi South 4.6 mph - N/A   Mostly Cloudy
7:53 PM 57.9 °F 51.1 °F 78% 29.92 in 8.0 mi Calm Calm - N/A   Clear
8:53 PM 55.9 °F 50.0 °F 80% 29.93 in 7.0 mi Calm Calm - N/A   Clear
9:11 PM 55.4 °F 51.8 °F 88% 29.93 in 7.0 mi Calm Calm - N/A   Mostly Cloudy
9:53 PM 57.9 °F 52.0 °F 81% 29.93 in 7.0 mi Calm Calm - N/A   Overcast
10:53 PM 57.0 °F 51.1 °F 81% 29.91 in 9.0 mi Calm Calm - N/A   Clear
11:45 PM 55.4 °F 51.8 °F 88% 29.92 in 8.0 mi Calm Calm - N/A   Mostly Cloudy
11:53 PM 55.9 °F 51.1 °F 84% 29.92 in 8.0 mi Calm Calm - N/A   Mostly Cloudy